Location: Clanezzo
(45.7500°N, 9.6000°E)
Time: 07:33:38
(UTC+00:00)

AO-92 - Pass Details

Date: 08 July 2022
Orbit: 469 x 481 km, 97.4° (Epoch: 09 August)

Event Time Altitude Azimuth Distance (km) Brightness Sun altitude
Exits shadow 21:16:13 33° 156° (SSE) 821 ? -15.7°
Maximum altitude 21:17:41 76° 77° (ENE) 502 ? -15.8°
Drops below altitude 10° 21:21:17 10° 351° (N) 1,674 ? -16.1°
Sets 21:23:21 0° 349° (N) 2,561 ? -16.3°
